• Join FlightAware (Why Join?)
  • Login
  • US Flag 
03:11AM EDT


 

Airport Tracker/Info


-or-


 

Live Flight TrackerFlight Track Log ✈ SKW5564 ✈ 24-Oct-2013 ✈ KIAH - KTUL

Flight Track Log - Related Links

Times and Time Zones

All times are in EDT time to prevent confusion due to time zone crossing. See the SKW5564 flight status page for this flight to view local times or setup timezone preferences in your user account.

Time Position Orientation Groundspeed Altitude Reporting Facility
EDT Latitude Longitude Course Direction KTS MPH feet Rate Location/Type
10:24PM 29.9642 -95.3481 234° Southwest 151 174 700  Level Houston Center
10:25PM 29.9478 -95.3742 234° Southwest 190 219 1,800 1,740 Climbing Houston Center
10:26PM 29.9539 -95.4139 280° West 201 231 3,200 1,980 Climbing Houston Center
10:27PM 30.0239 -95.4208 355° North 270 311 5,300 2,520 Climbing Houston Center
10:28PM 30.0981 -95.3878 21° North 283 326 8,400 3,000 Climbing Houston Center
10:29PM 30.1781 -95.3953 355° North 288 331 11,400 1,920 Climbing Houston Center
10:30PM 30.2553 -95.4447 331° Northwest 323 372 12,400 1,320 Climbing Houston Center
10:31PM 30.3392 -95.5058 328° Northwest 350 403 14,100 1,920 Climbing Houston Center
10:32PM 30.4389 -95.5789 328° Northwest 354 407 16,400 1,740 Climbing Houston Center
10:33PM 30.5244 -95.6411 328° Northwest 360 414 17,700 1,200 Climbing Houston Center
10:34PM 30.6172 -95.6956 333° Northwest 371 427 18,900 1,200 Climbing Houston Center
10:35PM 30.7031 -95.7400 336° Northwest 380 437 20,200 1,260 Climbing Houston Center
10:36PM 30.8006 -95.7925 335° Northwest 384 442 21,500 1,320 Climbing Houston Center
10:37PM 30.9192 -95.8561 335° Northwest 388 447 22,900 1,260 Climbing Houston Center
10:38PM 31.0175 -95.9083 336° Northwest 387 445 24,100 1,020 Climbing Houston Center
10:39PM 31.1175 -95.9614 336° Northwest 392 451 25,000 780 Climbing Houston Center
10:40PM 31.2272 -95.9897 348° North 404 465 25,800 660 Climbing Houston Center
10:41PM 31.3389 -96.0172 348° North 406 467 26,400 660 Climbing Houston Center
10:42PM 31.4525 -96.0306 354° North 409 471 27,200 660 Climbing Houston Center
10:43PM 31.5686 -96.0417 355° North 414 476 27,800 600 Climbing Houston Center
10:44PM 31.6653 -96.0514 355° North 410 472 28,300 600 Climbing Fort Worth Center
10:45PM 31.7822 -96.0594 357° North 410 472 28,900 600 Climbing Fort Worth Center
10:46PM 31.8994 -96.0725 355° North 410 472 29,600 600 Climbing Fort Worth Center
10:47PM 31.9997 -96.0831 355° North 410 472 30,100 540 Climbing Fort Worth Center
10:48PM 32.1147 -96.0939 355° North 410 472 30,700 420 Climbing Fort Worth Center
10:49PM 32.2275 -96.1069 354° North 410 472 31,000 120 Climbing Fort Worth Center
10:50PM 32.3508 -96.1175 356° North 416 479 31,000  Level Fort Worth Center
10:51PM 32.4700 -96.1306 355° North 421 484 31,000  Level Fort Worth Center
10:52PM 32.5911 -96.1411 356° North 432 497 31,000  Level Fort Worth Center
10:53PM 32.7164 -96.1517 356° North 432 497 31,000  Level Fort Worth Center
10:54PM 32.8378 -96.1647 355° North 437 503 31,000  Level Fort Worth Center
10:55PM 32.9631 -96.1781 355° North 443 510 31,000  Level Fort Worth Center
10:56PM 33.0864 -96.1886 356° North 443 510 31,000  Level Fort Worth Center
10:57PM 33.2075 -96.2019 355° North 443 510 31,000  Level Fort Worth Center
10:58PM 33.3308 -96.2100 357° North 443 510 31,000  Level Fort Worth Center
10:59PM 33.4558 -96.1983 North 443 510 31,000  Level Fort Worth Center
11:00PM 33.5831 -96.1842 North 443 510 31,000  Level Fort Worth Center
11:01PM 33.7061 -96.1700 North 443 510 31,000  Level Fort Worth Center
11:02PM 33.8331 -96.1558 North 443 510 31,000  Level Fort Worth Center
11:03PM 33.9561 -96.1414 North 443 510 31,000  Level Fort Worth Center
11:04PM 34.0811 -96.1269 North 443 510 31,000  Level Fort Worth Center
11:05PM 34.2022 -96.1178 North 436 502 31,000  Level Fort Worth Center
11:06PM 34.3250 -96.1033 North 441 507 31,000 -600 Level Fort Worth Center
11:07PM 34.4481 -96.0889 North 441 507 29,900 -1,500 Descending Fort Worth Center
11:08PM 34.5794 -96.0742 North 446 513 28,000 -2,100 Descending Fort Worth Center
11:09PM 34.7003 -96.0597 North 451 519 25,800 -2,220 Descending Fort Worth Center
11:10PM 34.8211 -96.0478 North 440 506 23,600 -2,220 Descending Fort Worth Center
11:11PM 34.9419 -96.0331 North 435 501 21,400 -2,220 Descending Fort Worth Center
11:12PM 35.0628 -96.0186 North 435 501 19,200 -2,040 Descending Fort Worth Center
11:13PM 35.1772 -96.0064 North 429 494 17,400 -2,100 Descending Fort Worth Center
11:14PM 35.3742 -95.9822 North 396 456 13,500 -2,220 Descending Kansas City Center
11:15PM 35.4717 -95.9700 North 363 418 11,300 -1,920 Descending Kansas City Center
11:16PM 35.5633 -95.9608 North 341 392 9,700 -1,260 Descending Kansas City Center
11:17PM 35.6431 -95.9553 North 277 319 8,900 -840 Descending Kansas City Center
11:17PM 35.6406 -95.9506 123° Southeast 293 337 8,900 -1,200 Level Kansas City Center
11:18PM 35.7194 -95.9431 North 274 315 7,700 -1,200 Descending Kansas City Center
11:18PM 35.7186 -95.9419 133° Southeast 282 325 7,700 -1,200 Level Kansas City Center
11:19PM 35.7983 -95.9328 North 285 328 6,500 -1,200 Descending Kansas City Center
11:19PM 35.7969 -95.9306 128° Southeast 281 323 6,500 -300 Level Kansas City Center
11:20PM 35.8717 -95.9200 North 277 319 6,200 -660 Descending Kansas City Center
11:21PM 35.9347 -95.9008 14° North 248 285 5,200 -900 Descending Kansas City Center
11:23PM 36.0042 -95.8947 North 213 245 4,400 -960 Descending Kansas City Center
11:23PM 36.0489 -95.8928 North 186 214 3,400 -1,140 Descending Kansas City Center
11:24PM 36.0564 -95.8911 10° North 193 222 3,300 -900 Descending Kansas City Center
11:24PM 36.0967 -95.8892 North 175 201 2,500 -900 Descending Kansas City Center
11:25PM 36.1047 -95.8878 North 181 208 2,400 -840 Descending Kansas City Center
11:25PM 36.1364 -95.8867 North 134 154 1,700 -840 Descending Kansas City Center
11:26PM 36.1414 -95.8858 North 152 175 1,600 -720 Descending Kansas City Center
11:26PM 36.1697 -95.8847 North 117 135 1,000 -720 Descending Kansas City Center
11:27PM 36.1747 -95.8839 North 133 153 900 -600 Descending Kansas City Center
11:29PM 36.1833 -95.8833 North  Level FlightAware Approximate